Regional Weather Roundup
Issued by NWS Nashville, TN

Home | Current Version | Previous Version | Text Only | Print | Product List | Glossary On
Versions: 1 2 3 4 5 6 7 8 9 10 11 12 13 14 15 16 17 18 19 20 21 22 23 24 25 26 27 28 29 30 31 32 33 34 35 36 37 38 39 40 41 42 43 44 45 46 47 48 49 50
000
ASUS44 KOHX 252215
RWROHX
MIDDLE TENNESSEE HOURLY WEATHER ROUNDUP
NATIONAL WEATHER SERVICE NASHVILLE TN
400 PM CST TUE NOV 25 2014

NOTE: "FAIR" INDICATES FEW OR NO CLOUDS BELOW 12,000 FEET WITH
NO SIGNIFICANT WEATHER AND/OR OBSTRUCTIONS TO VISIBILITY.

* THESE REPORTS ARE NOT UNDER NWS QUALITY CONTROL AND MAY NOT
  REPORT WEATHER SUCH AS PRECIPITATION AND FOG.


TNZ005>011-023>034-057-059-062>066-078-080-252300
...NORTHERN MIDDLE TENNESSEE...

CITY           SKY/WX    TMP DP  RH WIND       PRES   REMARKS
CLARKSVILLE    MOCLDY    44  27  51 N8        30.13S
CROSSVILLE     CLOUDY    50  28  42 W7        30.06S
GALLATIN         N/A     45  27  49 NW5       30.13S
DICKSON        MOCLDY    45  23  42 W5        30.11S
LEBANON        MOCLDY    46  28  49 NW7       30.10S
LIVINGSTON     CLOUDY    63  27  25 N7        30.08
NASHVILLE      CLOUDY    48  25  40 NW6       30.12S
WEST NASHVILLE   N/A     45  25  45 W5        30.13S
PORTLAND         N/A     41  25  52 NW3       30.11F
SMYRNA         CLOUDY    48  29  48 N8        30.13R
SPARTA         CLEAR     48  30  49 N6        30.07F
$$
TNZ056-058-060-061-075>077-079-093>097-252300
...SOUTHERN MIDDLE TENNESSEE...

CITY           SKY/WX    TMP DP  RH WIND       PRES   REMARKS
COLUMBIA       CLEAR     46  27  46 NW6       30.10S
LEWISBURG      MOCLDY    48  29  48 CALM      30.10S
MCMINNVILLE    CLEAR     48  30  49 CALM      30.08S
MURFREESBORO   CLOUDY    48  27  44 N6        30.10F
SHELBYVILLE    CLEAR     48  32  53 NW22G56   30.10S
TULLAHOMA      CLEAR     46  28  49 NW5       30.09R
WINCHESTER     CLEAR     48  30  49 N6        30.08S
$$


...KEY TO REMARKS...
VSB - VISIBILITY IN MILES
WCI - WIND CHILL INDEX
HX  - HEAT INDEX




USA.gov is the U.S. government's official web portal to all federal, state and local government web resources and services.